{"data":{"norad_id":54162,"intl_designator":"2022-141F","name":"STARLINK-5273","alt_names":[],"object_type":"PAYLOAD","status":"ACTIVE","operator":null,"country":"US","launch_date":"2022-10-28","launch_site_code":"AFWTR","launch_vehicle":null,"mission":null,"orbit_class":"UNKNOWN","rcs_meters":null,"size_class":null,"mass_kg":null,"dimensions":null,"purposes":["comms"],"wikipedia_slug":null,"has_3d_model":false,"image_url":null,"decayed_at":null,"tle_current":{"epoch":"2026-05-25T02:36:01.052928Z","epoch_age_seconds":65432,"freshness":"FRESH","line1":"1 54162U 22141F   26145.10834552 -.00004502  00000+0 -26478-3 0  9996","line2":"2 54162  53.2137  31.0784 0001550  97.5933 262.5235 15.08858926197252","mean_motion":15.08858926,"eccentricity":0.000155,"inclination_deg":53.2137,"raan_deg":31.0784,"arg_perigee_deg":97.5933,"mean_anomaly_deg":262.5235,"bstar":-0.00026478,"rev_number":19725,"period_min":95.436357580324,"perigee_km":538.61327786449,"apogee_km":540.757802852,"semimajor_km":6917.8225403582,"source":"CELESTRAK","updated_at":"2026-05-25T13:38:17.660007Z"}}}